[[{"header":{"parameterUnit":"m.s-1","parameterCategory":1,"la1":30.2991,"la2":30.254,"lo1":-89.0895,"lo2":-89.0444,"dy":0.0017,"dx":0.0017,"nx":28,"ny":28,"refTime":"2024-07-15T03:00:00:Z","depth":0,"parameterNumber":2,"parameterNumberName":"U-component_of_WINDS"},"data":[0,0,0,0,0,0,0,0,0,0,0,0,0,0,0,0,0,0,0,0,0,0,0,0,0,0,0,0,0,0,0,0,0,0,0,0,0,0,0,0,0,0,0,0,0,0,0,0,0,0,0,0,0,0,0,0,0,0,0.4694,0.4694,0,0.4694,0.4694,0.4694,0.466,0.4659,0.4658,0.4657,0.4658,0.4659,0.466,0,0,0,0,0,0,0,0,0,0,0,0,0,0.4665,0.4665,0.4694,0.4694,0.4694,0.4694,0.4694,0.4694,0.466,0.4659,0.4658,0.4657,0.4658,0.4659,0.466,0,0,0,0,0,0,0,0,0,0,0,0,0,0.4672,0.4666,0.4694,0.4677,0.4675,0.4694,0.4694,0.4694,0.466,0.4659,0.4657,0.4656,0.4658,0.4659,0.466,0.4696,0,0,0.4664,0.4665,0,0,0,0,0,0,0,0,0.4672,0.4674,0.4679,0.4678,0.4676,0.4675,0.4684,0.4695,0.466,0.4666,0.4657,0.4655,0.4665,0.4666,0.4669,0.4696,0.4696,0.4664,0.4665,0.4666,0.4666,0,0,0,0,0,0,0,0.4672,0.4673,0.4694,0.4679,0.4678,0.4669,0.4669,0.4686,0.4673,0.4665,0.4663,0.4663,0.4664,0.4668,0.4669,0.4696,0.4664,0.4666,0.4666,0.4667,0.4752,0.4754,0,0,0,0,0,0,0.4673,0.4673,0.4694,0.4694,0.4671,0.4671,0.4671,0.4677,0.4673,0.4671,0.4664,0.4662,0.4666,0.4667,0.4669,0.471,0.4666,0.4667,0.4668,0.4751,0.4753,0.4754,0,0,0,0,0,0,0.4673,0.4675,0.4694,0.4683,0.4685,0.4673,0.4681,0.4678,0.4681,0.4672,0.467,0.467,0.4665,0.4667,0.4689,0.4709,0.4668,0.4669,0.4749,0.4751,0.4754,0.4793,0,0,0,0,0,0,0.4672,0.4675,0.4689,0.4683,0.4685,0.4714,0.4682,0.4679,0.4684,0.468,0.4677,0.4675,0.4664,0.4687,0.4691,0.4711,0.467,0.4747,0.475,0.4753,0.479,0.4796,0.4802,0,0,0,0,0,0.4671,0.47,0.4689,0.4692,0.4701,0.4716,0.4717,0.4703,0.4685,0.4699,0.4693,0.4676,0.4707,0.469,0.4693,0.4714,0.4746,0.4749,0.4753,0.4787,0.4795,0.4802,0,0,0,0,0,0,0.4708,0.4699,0.4687,0.4715,0.4716,0.471,0.4726,0.4712,0.4718,0.4714,0.4697,0.4697,0.4722,0.472,0.4702,0.4748,0.4723,0.4728,0.4748,0.4756,0.4762,0.4762,0.4671,0,0,0,0,0,0.4719,0.4731,0.4723,0.4748,0.4749,0.4738,0.4743,0.4733,0.4733,0.4734,0.473,0.4731,0.4742,0.4749,0.4758,0.4789,0.4788,0.4805,0.4811,0.4816,0.482,0.4837,0.4844,0.4765,0.4765,0.4765,0,0,0.4742,0.4739,0.4748,0.4755,0.4755,0.4768,0.4738,0.4753,0.4763,0.4736,0.4757,0.4754,0.4755,0.4783,0.4794,0.4782,0.4842,0.482,0.4824,0.4825,0.4841,0.4848,0.4855,0.4767,0.4767,0.4767,0,0,0.4792,0.479,0.4811,0.4812,0.4812,0.4804,0.4809,0.4805,0.4802,0.4823,0.4803,0.4814,0.4832,0.4834,0.4837,0.4887,0.4872,0.4891,0.4922,0.4938,0.4944,0.495,0.4968,0.4974,0.4894,0.4895,0.4895,0,0.4821,0.4839,0.4824,0.484,0.4845,0.4821,0.4842,0.4843,0.4847,0.485,0.4836,0.4858,0.4857,0.4884,0.4896,0.49,0.4905,0.4891,0.4945,0.495,0.4955,0.4972,0.4979,0.4897,0.4897,0.4896,0.4896,0,0.4875,0.4889,0.4906,0.4909,0.4915,0.4934,0.4922,0.493,0.4919,0.4913,0.4934,0.4932,0.494,0.4946,0.4935,0.4972,0.4964,0.4948,0.4922,0.4965,0.498,0.4987,0.49,0.4899,0.4899,0.4898,0,0,0.4946,0.4942,0.4948,0.4949,0.4948,0.4958,0.4976,0.4984,0.4991,0.4995,0.5009,0.5025,0.501,0.5014,0.5003,0.5018,0.5058,0.4999,0.4999,0.501,0.5098,0.511,0.5118,0.5048,0.5049,0.505,0.5098,0,0.4994,0.5024,0.5011,0.5043,0.5055,0.5033,0.5049,0.505,0.5045,0.5055,0.5049,0.5061,0.504,0.5042,0.5055,0.505,0.5075,0.5046,0.5061,0.5062,0.5061,0.5126,0.5139,0.5184,0.5104,0.5105,0.5106,0,0.5053,0.5058,0.5091,0.5088,0.5093,0.5107,0.5113,0.5123,0.5124,0.5119,0.5124,0.511,0.5128,0.5103,0.5127,0.5108,0.5113,0.5112,0.5113,0.5114,0.5086,0.5128,0.5198,0.5205,0.5115,0.5114,0.5114,0,0.5101,0.5117,0.5139,0.5141,0.5138,0.5148,0.5147,0.5147,0.5153,0.5158,0.5162,0.517,0.5174,0.5181,0.5169,0.5152,0.5195,0.517,0.5192,0.5192,0.5202,0.5201,0.5274,0.5206,0.5206,0.5206,0.5206,0,0.5155,0.5176,0.516,0.5174,0.5196,0.5182,0.5205,0.5202,0.5202,0.5214,0.5196,0.5209,0.5193,0.5204,0.5196,0.5217,0.5219,0.5216,0.5214,0.5218,0.5218,0.522,0.5217,0.5207,0.5207,0.5207,0.5206,0,0.5212,0.5203,0.5225,0.5221,0.522,0.5237,0.5233,0.5246,0.524,0.5256,0.5259,0.5249,0.5261,0.5251,0.5263,0.5257,0.5285,0.5278,0.5285,0.5283,0.5306,0.5304,0.5382,0.5391,0.5318,0.5319,0.532,0,0.5247,0.5262,0.526,0.5267,0.5267,0.5279,0.5285,0.5271,0.5278,0.5281,0.5293,0.5303,0.5311,0.5331,0.5325,0.5334,0.5327,0.5354,0.5328,0.5332,0.5327,0.5326,0.5328,0.5359,0.536,0.5361,0.5361,0,0.5309,0.5304,0.5313,0.532,0.5328,0.5333,0.5337,0.5344,0.533,0.5339,0.5351,0.5357,0.5369,0.5379,0.5386,0.5386,0.5371,0.5369,0.5375,0.5379,0.5382,0.538,0.5299,0.5368,0.5367,0.5366,0.5366,0.5366,0.5355,0.5368,0.5369,0.538,0.5381,0.5386,0.5397,0.5393,0.5402,0.5411,0.5403,0.5417,0.5419,0.5427,0.5428,0.5439,0.5428,0.5436,0.5438,0.544,0.5443,0.5381,0.5441,0.544,0.544,0.544,0.544,0,0.5416,0.5416,0.5426,0.5432,0.5441,0.5427,0.5431,0.5439,0.5452,0.5454,0.5462,0.5476,0.5487,0.5482,0.5491,0.5501,0.5495,0.5504,0.5503,0.5503,0.5453,0.5447,0.5509,0.5509,0.5509,0.5509,0.5509,0.5509,0.5449,0.547,0.5465,0.5487,0.5487,0.5501,0.5504,0.5508,0.551,0.5526,0.5535,0.5532,0.5532,0.5541,0.555,0.5549,0.5553,0.5564,0.556,0.5513,0.5507,0.55,0.5494,0.5565,0.5565,0.5609,0.561,0.561]},{"header":{"parameterUnit":"m.s-1","parameterCategory":1,"la1":30.2991,"la2":30.254,"lo1":-89.0895,"lo2":-89.0444,"dy":0.0017,"dx":0.0017,"nx":28,"ny":28,"refTime":"2024-07-15T03:00:00:Z","depth":0,"parameterNumber":3,"parameterNumberName":"V-component_of_WINDS"},"data":[0,0,0,0,0,0,0,0,0,0,0,0,0,0,0,0,0,0,0,0,0,0,0,0,0,0,0,0,0,0,0,0,0,0,0,0,0,0,0,0,0,0,0,0,0,0,0,0,0,0,0,0,0,0,0,0,0,0,4.766,4.7659,0,4.7604,4.7604,4.7603,4.7606,4.7607,4.7607,4.7608,4.7542,4.754,4.7537,0,0,0,0,0,0,0,0,0,0,0,0,0,4.776,4.7758,4.766,4.7659,4.7658,4.7605,4.7604,4.7603,4.7606,4.7607,4.7608,4.7609,4.7543,4.754,4.7537,0,0,0,0,0,0,0,0,0,0,0,0,0,4.7711,4.7757,4.766,4.7653,4.7652,4.7605,4.7604,4.7603,4.7605,4.7607,4.7608,4.7609,4.7544,4.754,4.7536,4.7489,0,0,4.7525,4.7523,0,0,0,0,0,0,0,0,4.7714,4.7707,4.7655,4.7654,4.7653,4.7614,4.7615,4.7564,4.7605,4.7623,4.7608,4.761,4.7564,4.7559,4.7545,4.7485,4.7483,4.7525,4.7522,4.7521,4.752,0,0,0,0,0,0,0,4.7717,4.771,4.7638,4.7654,4.7653,4.7651,4.7645,4.7605,4.7587,4.7621,4.7622,4.7616,4.7564,4.7549,4.7544,4.7482,4.7525,4.7521,4.7519,4.7517,4.738,4.7379,0,0,0,0,0,0,4.7723,4.7713,4.7639,4.7636,4.7687,4.7648,4.7642,4.7625,4.7588,4.7583,4.7615,4.7616,4.7555,4.7548,4.7542,4.7483,4.7521,4.7517,4.7515,4.7381,4.738,4.7378,0,0,0,0,0,0,4.7725,4.7717,4.7642,4.7674,4.7665,4.7645,4.7626,4.7623,4.7608,4.7583,4.7578,4.7604,4.7556,4.7547,4.7503,4.7481,4.7515,4.7512,4.7383,4.7381,4.7379,4.7366,0,0,0,0,0,0,4.7728,4.7718,4.7701,4.7674,4.7663,4.7606,4.7624,4.7621,4.7603,4.7604,4.7571,4.7567,4.7556,4.7508,4.7499,4.7476,4.7509,4.7385,4.7382,4.738,4.7368,4.7364,4.736,0,0,0,0,0,4.7732,4.7697,4.77,4.7691,4.7642,4.7605,4.7598,4.7589,4.7601,4.7583,4.7567,4.7568,4.7485,4.7504,4.7493,4.7469,4.7386,4.7383,4.738,4.737,4.7365,4.736,0,0,0,0,0,0,4.7718,4.7693,4.7696,4.7653,4.7631,4.7605,4.7582,4.7583,4.7555,4.7557,4.7545,4.7537,4.7493,4.7476,4.7497,4.7421,4.7437,4.7431,4.7433,4.7428,4.7424,4.7428,4.7506,0,0,0,0,0,4.7711,4.7685,4.7664,4.7627,4.7617,4.7601,4.7584,4.758,4.7556,4.7546,4.7526,4.75,4.7468,4.7447,4.7417,4.7367,4.7359,4.7345,4.7341,4.7338,4.7333,4.7305,4.7298,4.7368,4.7368,4.7368,0,0,4.7693,4.7677,4.7661,4.7624,4.7607,4.7578,4.7593,4.7562,4.754,4.754,4.7498,4.7482,4.7452,4.7405,4.7383,4.739,4.7312,4.7334,4.7331,4.7328,4.7301,4.7294,4.7289,4.7366,4.7366,4.7367,0,0,4.7648,4.7633,4.7602,4.7585,4.756,4.7551,4.7543,4.7518,4.7509,4.7467,4.7467,4.7439,4.7385,4.7364,4.7346,4.7295,4.7294,4.7285,4.7263,4.7236,4.723,4.7225,4.7206,4.72,4.728,4.728,4.728,0,4.7628,4.7588,4.7584,4.7554,4.7537,4.754,4.7506,4.7489,4.7454,4.7442,4.7451,4.7385,4.7364,4.7312,4.7301,4.7286,4.7275,4.7288,4.7232,4.7227,4.7222,4.7204,4.7197,4.7279,4.7279,4.728,4.728,0,4.7566,4.7538,4.7514,4.7485,4.7466,4.7433,4.7422,4.7403,4.7401,4.739,4.7347,4.7324,4.7289,4.7276,4.7272,4.7224,4.7229,4.7235,4.725,4.7215,4.7197,4.719,4.7278,4.7278,4.7279,4.7279,0,0,4.7507,4.7478,4.747,4.7457,4.7431,4.7407,4.7375,4.7345,4.7328,4.7304,4.7275,4.7231,4.7238,4.7217,4.7211,4.7188,4.7148,4.7197,4.7196,4.7188,4.7093,4.7087,4.7079,4.7149,4.7147,4.7146,4.7095,0,4.7458,4.7405,4.7401,4.7351,4.7324,4.7328,4.73,4.7279,4.7269,4.7242,4.7229,4.7198,4.7209,4.7197,4.7174,4.7158,4.7129,4.7162,4.7119,4.7118,4.7126,4.707,4.7064,4.7017,4.7088,4.7087,4.7086,0,4.7393,4.7372,4.732,4.73,4.7288,4.7263,4.7236,4.7212,4.7188,4.7182,4.7161,4.7158,4.7123,4.7141,4.7091,4.7114,4.7096,4.7086,4.7084,4.7078,4.7099,4.7062,4.7002,4.6994,4.7075,4.7076,4.7077,0,4.7355,4.7313,4.7277,4.7266,4.7241,4.7223,4.7211,4.719,4.7172,4.7147,4.7135,4.7105,4.7087,4.7063,4.7052,4.7066,4.7002,4.702,4.6994,4.6994,4.6979,4.6979,4.6913,4.6969,4.697,4.697,4.697,0,4.73,4.7268,4.726,4.7238,4.7202,4.7197,4.7161,4.715,4.7131,4.7105,4.7105,4.708,4.7067,4.7039,4.703,4.699,4.6982,4.6974,4.6971,4.6973,4.6974,4.696,4.6963,4.6968,4.6968,4.6969,4.6969,0,4.725,4.7244,4.7205,4.7186,4.7181,4.7155,4.7137,4.7114,4.7105,4.7072,4.7064,4.7048,4.7016,4.7003,4.6962,4.6956,4.6909,4.6909,4.6918,4.6917,4.6892,4.6894,4.6813,4.6802,4.6867,4.6866,4.6866,0,4.7215,4.7191,4.7171,4.7156,4.7144,4.7118,4.7102,4.7096,4.7078,4.7051,4.7031,4.7,4.6974,4.6922,4.6905,4.6874,4.6873,4.6847,4.6867,4.687,4.6871,4.6872,4.687,4.6842,4.6841,4.6841,4.684,0,4.7153,4.7152,4.7129,4.7106,4.7087,4.7067,4.7047,4.7034,4.7025,4.7004,4.6973,4.6954,4.6914,4.6882,4.6851,4.6836,4.6836,4.6835,4.6827,4.6828,4.6833,4.6829,4.6906,4.6836,4.6836,4.6837,4.6837,4.6837,4.7109,4.7088,4.7072,4.7046,4.7032,4.7015,4.6993,4.6983,4.6958,4.6928,4.6925,4.6892,4.6869,4.6827,4.6811,4.6783,4.6789,4.6778,4.6775,4.6772,4.677,4.684,4.6777,4.6777,4.6777,4.6777,4.6777,0,4.7046,4.7037,4.7014,4.6989,4.6969,4.6975,4.6954,4.6936,4.6908,4.6888,4.6865,4.6829,4.6799,4.6781,4.675,4.6731,4.673,4.6722,4.6723,4.6719,4.6767,4.6776,4.6724,4.6724,4.6724,4.6724,4.6724,4.6724,4.7011,4.6977,4.6974,4.6932,4.6922,4.6892,4.688,4.6863,4.6848,4.6809,4.6785,4.6775,4.6756,4.6724,4.6696,4.6691,4.6679,4.6671,4.6666,4.671,4.6716,4.6721,4.673,4.6669,4.6669,4.6621,4.6621,4.6621]}]]